Language: 


Des rapports , des résumés tant et plus, au choix de chacun....


Données Historiques de Météogheer
Journalier Rapport pour Janvier 19, 2018 Unitée:  Impériale    Métrique   Les deux
Suivant Jour »
Journalier Hebdomadaire Mensuel Annuel Sur mesure
  Max: Min: Moyenne:
Température: 47.3 °F 30.6 °F 38.3 °F
Point de rosée: 41 °F 28.4 °F 34 °F
Humidité: 98% 58% 85%
Vent: 15.7mph 0mph 3.7mph
Rafales: 20.1mph - -
Vent- - WSW
Pression: 29.8 in 29.6 in -
Pluie: 0 in    
Historical Graphs
 
 
Données tabulaires pour Janvier 19, 2018
Heure Température Point de rosée Pression Vent Vent Rafales Humidité Pluie Taux (Horaire) Conditions
00:01 40.1 °F 39.2 °F 29.6 in West 7.4 mph 9.2 mph 93% 0 in
00:06 39.9 °F 37.4 °F 29.6 in West 9.2 mph 9.8 mph 93% 0 in
00:11 40.1 °F 37.4 °F 29.6 in West 4.3 mph 11.9 mph 92% 0 in
00:16 40.1 °F 37.4 °F 29.7 in WSW 6 mph 11.9 mph 92% 0 in
00:21 39.9 °F 37.4 °F 29.7 in WSW 11 mph 11 mph 91% 0 in
00:26 40.1 °F 37.4 °F 29.7 in WSW 11 mph 12.1 mph 91% 0 in
00:32 40.1 °F 37.4 °F 29.7 in WSW 9.4 mph 12.1 mph 91% 0 in
00:37 40.1 °F 37.4 °F 29.7 in West 4.3 mph 12.8 mph 91% 0 in
00:42 39.9 °F 37.4 °F 29.7 in West 7.8 mph 12.8 mph 90% 0 in
00:47 39.9 °F 37.4 °F 29.7 in WSW 7.4 mph 11 mph 89% 0 in
00:52 39.9 °F 37.4 °F 29.7 in West 10.1 mph 11 mph 89% 0 in
00:57 39.9 °F 37.4 °F 29.7 in West 6.9 mph 10.5 mph 89% 0 in
01:02 39.9 °F 37.4 °F 29.6 in West 9.6 mph 9.8 mph 89% 0 in
01:07 39.9 °F 37.4 °F 29.6 in West 7.8 mph 9.6 mph 88% 0 in
01:12 39.9 °F 37.4 °F 29.6 in WSW 8.7 mph 9.8 mph 88% 0 in
01:17 39.7 °F 37.4 °F 29.6 in WSW 8.5 mph 9.8 mph 88% 0 in
01:22 39.6 °F 37.4 °F 29.6 in West 7.6 mph 9.8 mph 87% 0 in
01:27 39.6 °F 37.4 °F 29.6 in West 6 mph 7.6 mph 87% 0 in
01:32 39.4 °F 35.6 °F 29.7 in West 6.3 mph 7.8 mph 87% 0 in
01:37 39.4 °F 35.6 °F 29.7 in West 2.9 mph 8.1 mph 87% 0 in
01:42 39.4 °F 35.6 °F 29.7 in WNW 6 mph 11 mph 87% 0 in
01:47 39.4 °F 35.6 °F 29.7 in West 6.3 mph 11 mph 87% 0 in
01:52 39.4 °F 35.6 °F 29.7 in West 7.6 mph 8.5 mph 87% 0 in
01:57 39.4 °F 35.6 °F 29.7 in WSW 6.3 mph 10.5 mph 87% 0 in
02:02 39.4 °F 35.6 °F 29.7 in WSW 4.9 mph 10.5 mph 87% 0 in
02:07 39.2 °F 35.6 °F 29.7 in West 6.3 mph 8.5 mph 87% 0 in
02:12 39.2 °F 35.6 °F 29.7 in WSW 7.6 mph 10.3 mph 87% 0 in
02:17 39.2 °F 35.6 °F 29.7 in West 6.3 mph 10.3 mph 87% 0 in
02:22 38.8 °F 35.6 °F 29.7 in West 6 mph 8.7 mph 87% 0 in
02:27 38.8 °F 35.6 °F 29.7 in WSW 6.5 mph 8.7 mph 87% 0 in
02:32 38.7 °F 35.6 °F 29.7 in West 5.6 mph 8.5 mph 87% 0 in
02:38 38.5 °F 35.6 °F 29.7 in WSW 6.3 mph 8.7 mph 87% 0 in
02:43 38.3 °F 35.6 °F 29.7 in West 6.3 mph 8.7 mph 87% 0 in
02:48 38.1 °F 35.6 °F 29.7 in WSW 7.6 mph 8.1 mph 87% 0 in
02:53 37.9 °F 35.6 °F 29.7 in West 5.8 mph 7.8 mph 87% 0 in
02:58 37.8 °F 35.6 °F 29.7 in WSW 5.8 mph 7.8 mph 87% 0 in
03:03 37.6 °F 33.8 °F 29.7 in Calm   6.5 mph 87% 0 in
03:08 37.4 °F 33.8 °F 29.7 in WSW 4.7 mph 7.6 mph 87% 0 in
03:13 37.2 °F 33.8 °F 29.7 in WSW 5.8 mph 7.6 mph 88% 0 in
03:18 37.2 °F 33.8 °F 29.7 in West 6 mph 7.6 mph 88% 0 in
03:23 37 °F 33.8 °F 29.7 in WSW 5.6 mph 7.6 mph 88% 0 in
03:28 36.7 °F 33.8 °F 29.7 in WSW 2.7 mph 6.9 mph 88% 0 in
03:33 36.7 °F 33.8 °F 29.7 in West 6.3 mph 6.9 mph 88% 0 in
03:38 36.5 °F 33.8 °F 29.7 in West 4 mph 6.7 mph 89% 0 in
03:43 36.5 °F 33.8 °F 29.7 in Calm   6.5 mph 89% 0 in
03:48 36.3 °F 33.8 °F 29.7 in West 5.8 mph 6.5 mph 89% 0 in
03:53 36 °F 33.8 °F 29.7 in Calm   6.5 mph 89% 0 in
03:58 35.6 °F 33.8 °F 29.7 in WSW 3.6 mph 6.3 mph 88% 0 in
04:03 35.4 °F 33.8 °F 29.7 in Calm   5.8 mph 89% 0 in
04:08 35.1 °F 32 °F 29.7 in Calm   4.7 mph 89% 0 in
04:13 34.9 °F 32 °F 29.7 in Calm   4.3 mph 89% 0 in
04:19 34.9 °F 32 °F 29.7 in Calm   4 mph 89% 0 in
04:24 34.2 °F 32 °F 29.7 in Calm   3.6 mph 89% 0 in
04:29 34 °F 32 °F 29.7 in Calm     89% 0 in
04:34 34 °F 32 °F 29.7 in Calm     90% 0 in
04:39 33.8 °F 32 °F 29.7 in Calm   2.5 mph 90% 0 in
04:44 33.8 °F 32 °F 29.7 in Calm   2.5 mph 91% 0 in
04:49 33.6 °F 32 °F 29.7 in Calm   2.5 mph 91% 0 in
04:54 33.8 °F 32 °F 29.7 in Calm   2 mph 92% 0 in
04:59 33.8 °F 32 °F 29.7 in Calm     92% 0 in
05:04 33.8 °F 32 °F 29.7 in Calm     93% 0 in
05:09 33.8 °F 32 °F 29.7 in Calm   0.9 mph 93% 0 in
05:14 33.8 °F 32 °F 29.7 in Calm   1.3 mph 93% 0 in
05:19 33.6 °F 32 °F 29.7 in Calm   1.3 mph 94% 0 in
05:24 33.6 °F 32 °F 29.7 in Calm     94% 0 in
05:29 33.4 °F 32 °F 29.7 in Calm   2.9 mph 94% 0 in
05:34 33.3 °F 32 °F 29.7 in Calm   2.9 mph 94% 0 in
05:39 33.3 °F 32 °F 29.7 in WSW 3.6 mph 4.3 mph 94% 0 in
05:44 33.1 °F 32 °F 29.7 in Calm   4.3 mph 93% 0 in
05:49 33.3 °F 32 °F 29.7 in Calm   4.3 mph 94% 0 in
05:54 33.6 °F 32 °F 29.7 in Calm   4.3 mph 94% 0 in
06:00 33.8 °F 33.8 °F 29.7 in Calm   3.4 mph 95% 0 in
06:05 33.8 °F 33.8 °F 29.7 in Calm   3.8 mph 95% 0 in
06:10 33.8 °F 33.8 °F 29.7 in Calm   3.8 mph 95% 0 in
06:15 33.6 °F 33.8 °F 29.7 in Calm   2.7 mph 95% 0 in
06:20 33.3 °F 32 °F 29.7 in Calm   2.7 mph 95% 0 in
06:25 33.1 °F 32 °F 29.7 in Calm     94% 0 in
06:30 32.9 °F 32 °F 29.7 in Calm     94% 0 in
06:35 32.5 °F 32 °F 29.7 in WSW 2 mph 2 mph 93% 0 in
06:40 32.2 °F 30.2 °F 29.7 in Calm   2 mph 93% 0 in
06:45 32 °F 28.4 °F 29.7 in Calm     93% 0 in
06:50 31.8 °F 28.4 °F 29.7 in Calm     93% 0 in
06:55 31.6 °F 28.4 °F 29.7 in Calm     94% 0 in
07:00 31.6 °F 28.4 °F 29.7 in Calm     94% 0 in
07:05 32 °F 30.2 °F 29.7 in Calm     95% 0 in
07:10 32.2 °F 32 °F 29.7 in Calm     96% 0 in
07:15 32.2 °F 32 °F 29.7 in Calm     96% 0 in
07:20 31.8 °F 30.2 °F 29.7 in Calm     96% 0 in
07:25 31.5 °F 28.4 °F 29.7 in Calm     95% 0 in
07:30 31.5 °F 28.4 °F 29.8 in Calm     95% 0 in
07:36 31.8 °F 30.2 °F 29.8 in Calm     96% 0 in
07:41 31.8 °F 30.2 °F 29.8 in Calm     96% 0 in
07:46 31.8 °F 30.2 °F 29.8 in Calm     97% 0 in
07:51 31.8 °F 30.2 °F 29.8 in Calm     97% 0 in
07:56 31.5 °F 30.2 °F 29.8 in Calm     97% 0 in
08:01 31.3 °F 30.2 °F 29.8 in Calm     96% 0 in
08:06 31.1 °F 28.4 °F 29.8 in Calm     96% 0 in
08:11 30.9 °F 28.4 °F 29.8 in Calm     96% 0 in
08:16 30.9 °F 28.4 °F 29.8 in Calm   2.2 mph 96% 0 in
08:21 30.7 °F 28.4 °F 29.8 in Calm   2.2 mph 96% 0 in
08:26 30.7 °F 28.4 °F 29.8 in Calm     97% 0 in
08:31 30.7 °F 28.4 °F 29.8 in Calm     97% 0 in
08:36 30.7 °F 28.4 °F 29.8 in Calm     97% 0 in
08:41 30.7 °F 28.4 °F 29.8 in Calm     97% 0 in
08:46 30.7 °F 28.4 °F 29.8 in Calm     97% 0 in
08:51 30.6 °F 28.4 °F 29.8 in Calm   3.1 mph 97% 0 in
08:57 30.7 °F 28.4 °F 29.8 in Calm   3.1 mph 97% 0 in
09:02 30.7 °F 30.2 °F 29.8 in Calm     98% 0 in
09:07 30.6 °F 28.4 °F 29.8 in Calm     98% 0 in
09:12 30.6 °F 28.4 °F 29.8 in Calm     98% 0 in
09:17 31.1 °F 30.2 °F 29.8 in Calm   2.9 mph 98% 0 in
09:22 31.8 °F 30.2 °F 29.8 in Calm   2.9 mph 98% 0 in
09:27 32.2 °F 32 °F 29.8 in Calm   2.5 mph 98% 0 in
09:32 32.4 °F 32 °F 29.8 in Calm   2.7 mph 98% 0 in
09:37 33.1 °F 33.8 °F 29.8 in Calm   2.7 mph 98% 0 in
09:42 33.1 °F 33.8 °F 29.8 in West 0.9 mph 4 mph 98% 0 in
09:47 33.8 °F 33.8 °F 29.8 in Calm   4.3 mph 98% 0 in
09:52 34.2 °F 33.8 °F 29.8 in Calm   4.3 mph 98% 0 in
09:57 34.3 °F 33.8 °F 29.8 in WSW 4.9 mph 4.9 mph 98% 0 in
10:02 34.3 °F 33.8 °F 29.8 in WSW 4.7 mph 5.6 mph 98% 0 in
10:07 35.4 °F 35.6 °F 29.8 in Calm   5.6 mph 98% 0 in
10:12 35.8 °F 35.6 °F 29.8 in West 1.1 mph 4.3 mph 98% 0 in
10:17 36.1 °F 37.4 °F 29.8 in WSW 4.9 mph 4.9 mph 98% 0 in
10:22 36.5 °F 37.4 °F 29.8 in Calm   4.9 mph 98% 0 in
10:27 36.7 °F 37.4 °F 29.8 in Calm   4.9 mph 98% 0 in
10:32 36.7 °F 37.4 °F 29.8 in WSW 1.3 mph 4.9 mph 98% 0 in
10:37 37.6 °F 37.4 °F 29.8 in WSW 3.8 mph 6 mph 98% 0 in
10:42 38.5 °F 39.2 °F 29.8 in WSW 5.8 mph 6.5 mph 98% 0 in
10:48 39 °F 39.2 °F 29.8 in WSW 6.9 mph 7.6 mph 98% 0 in
10:53 39.6 °F 39.2 °F 29.8 in WSW 6.9 mph 7.6 mph 98% 0 in
10:58 39.9 °F 39.2 °F 29.8 in WSW 5.6 mph 8.5 mph 98% 0 in
11:03 40.5 °F 41 °F 29.8 in WSW 5.8 mph 8.5 mph 98% 0 in
11:08 41 °F 41 °F 29.8 in WSW 4.3 mph 7.8 mph 97% 0 in
11:13 41.4 °F 41 °F 29.8 in WSW 4.9 mph 7.8 mph 96% 0 in
11:18 41.9 °F 41 °F 29.8 in WSW 6.3 mph 6.5 mph 95% 0 in
11:23 42.1 °F 41 °F 29.8 in SW 4.3 mph 8.1 mph 94% 0 in
11:28 42.4 °F 41 °F 29.8 in WSW 1.3 mph 8.1 mph 92% 0 in
11:33 42.4 °F 41 °F 29.8 in WSW 5.8 mph 7.6 mph 92% 0 in
11:38 42.8 °F 41 °F 29.8 in WSW 6.5 mph 8.5 mph 89% 0 in
11:43 42.8 °F 41 °F 29.8 in WSW 9.6 mph 11.2 mph 89% 0 in
11:48 42.8 °F 41 °F 29.8 in WSW 8.7 mph 11.2 mph 89% 0 in
11:53 43.3 °F 39.2 °F 29.8 in WSW 7.8 mph 10.1 mph 84% 0 in
11:58 43.5 °F 39.2 °F 29.8 in WSW 6.3 mph 9.6 mph 83% 0 in
12:03 43.7 °F 39.2 °F 29.8 in SW 7.4 mph 9.6 mph 83% 0 in
12:08 43.7 °F 39.2 °F 29.8 in WSW 5.6 mph 8.1 mph 83% 0 in
12:13 44.6 °F 39.2 °F 29.8 in WSW 8.5 mph 10.3 mph 81% 0 in
12:18 44.6 °F 39.2 °F 29.8 in WSW 7.8 mph 10.3 mph 81% 0 in
12:23 45.1 °F 39.2 °F 29.8 in WSW 9.8 mph 10.5 mph 79% 0 in
12:28 45.1 °F 39.2 °F 29.8 in WSW 14.5 mph 14.5 mph 77% 0 in
12:33 45.3 °F 39.2 °F 29.8 in WSW 7.8 mph 14.5 mph 77% 0 in
12:38 45.3 °F 39.2 °F 29.8 in WSW 8.7 mph 12.5 mph 77% 0 in
12:43 45.3 °F 39.2 °F 29.8 in WSW 7.8 mph 13.4 mph 77% 0 in
12:48 45.3 °F 39.2 °F 29.8 in WSW 8.1 mph 13.4 mph 77% 0 in
12:54 45.9 °F 39.2 °F 29.8 in West 8.5 mph 11 mph 75% 0 in
12:59 45.9 °F 39.2 °F 29.8 in WSW 8.7 mph 11 mph 75% 0 in
13:04 45.9 °F 39.2 °F 29.8 in WSW 7.6 mph 12.3 mph 75% 0 in
13:09 46.4 °F 39.2 °F 29.8 in WSW 7.6 mph 15.2 mph 73% 0 in
13:14 45.9 °F 37.4 °F 29.8 in WSW 11 mph 15.2 mph 73% 0 in
13:19 45.9 °F 37.4 °F 29.8 in WSW 10.3 mph 13 mph 73% 0 in
13:24 45.9 °F 37.4 °F 29.8 in WSW 6.3 mph 13 mph 73% 0 in
13:29 45.9 °F 37.4 °F 29.8 in WSW 13 mph 14.8 mph 73% 0 in
13:34 45.9 °F 37.4 °F 29.8 in WSW 7.6 mph 14.8 mph 73% 0 in
13:39 45.9 °F 37.4 °F 29.8 in WSW 10.5 mph 14.5 mph 73% 0 in
13:44 45.9 °F 37.4 °F 29.8 in WSW 7.8 mph 14.1 mph 73% 0 in
13:49 45.9 °F 39.2 °F 29.8 in West 7.6 mph 12.5 mph 75% 0 in
13:54 45.9 °F 39.2 °F 29.8 in West 8.7 mph 12.5 mph 75% 0 in
13:59 45.9 °F 39.2 °F 29.8 in WSW 7.6 mph 14.5 mph 75% 0 in
14:04 45.9 °F 39.2 °F 29.8 in WSW 10.5 mph 14.5 mph 75% 0 in
14:09 45.9 °F 39.2 °F 29.8 in WSW 10.1 mph 13 mph 75% 0 in
14:14 45.7 °F 37.4 °F 29.8 in WSW 6 mph 11.9 mph 74% 0 in
14:19 46.4 °F 39.2 °F 29.8 in WSW 8.7 mph 10.3 mph 72% 0 in
14:24 46.4 °F 39.2 °F 29.8 in WNW 6 mph 11 mph 72% 0 in
14:29 46.4 °F 39.2 °F 29.8 in West 7.8 mph 12.8 mph 72% 0 in
14:35 46.4 °F 39.2 °F 29.8 in WSW 8.1 mph 17.4 mph 72% 0 in
14:40 46.4 °F 39.2 °F 29.8 in West 15.7 mph 17.4 mph 72% 0 in
14:45 46.4 °F 39.2 °F 29.8 in West 15.4 mph 20.1 mph 72% 0 in
14:50 47.3 °F 33.8 °F 29.8 in WSW 9.2 mph 20.1 mph 58% 0 in
14:55 47.3 °F 33.8 °F 29.8 in West 13 mph 17.4 mph 58% 0 in
15:00 47.3 °F 33.8 °F 29.8 in West 7.8 mph 14.8 mph 58% 0 in
15:05 47.3 °F 33.8 °F 29.8 in West 10.7 mph 14.5 mph 58% 0 in
15:10 47.3 °F 33.8 °F 29.8 in West 10.3 mph 13.2 mph 58% 0 in
15:15 47.3 °F 33.8 °F 29.8 in WSW 10.5 mph 15.4 mph 58% 0 in
15:20 47.3 °F 33.8 °F 29.8 in WSW 10.5 mph 15.4 mph 58% 0 in
15:25 47.3 °F 33.8 °F 29.8 in West 9.6 mph 15.4 mph 58% 0 in
15:30 47.3 °F 33.8 °F 29.8 in West 10.5 mph 15.2 mph 58% 0 in
15:35 47.3 °F 33.8 °F 29.8 in WSW 7.6 mph 15.2 mph 58% 0 in
15:40 47.3 °F 33.8 °F 29.8 in West 6.9 mph 12.3 mph 58% 0 in
15:45 47.3 °F 33.8 °F 29.8 in West 10.3 mph 15.4 mph 58% 0 in
15:50 46.4 °F 33.8 °F 29.8 in WSW 9.6 mph 15.4 mph 59% 0 in
15:55 46.4 °F 33.8 °F 29.8 in WNW 15.2 mph 17 mph 59% 0 in
16:00 46.4 °F 33.8 °F 29.8 in West 9.6 mph 17 mph 59% 0 in
16:05 46.4 °F 33.8 °F 29.8 in West 10.5 mph 14.8 mph 59% 0 in
16:10 46.4 °F 33.8 °F 29.8 in West 6.9 mph 14.8 mph 59% 0 in
16:15 45.7 °F 32 °F 29.8 in West 8.5 mph 14.8 mph 58% 0 in
16:20 45.7 °F 32 °F 29.8 in West 6.5 mph 13.2 mph 58% 0 in
16:25 45.1 °F 32 °F 29.8 in WSW 5.4 mph 8.5 mph 61% 0 in
16:30 45.1 °F 32 °F 29.8 in WSW 6.5 mph 11 mph 61% 0 in
16:35 45.1 °F 32 °F 29.8 in NW 6 mph 11 mph 61% 0 in
16:40 45.1 °F 32 °F 29.8 in West 7.8 mph 11 mph 61% 0 in
16:45 45.1 °F 32 °F 29.8 in WNW 7.8 mph 9.8 mph 61% 0 in
16:51 45.1 °F 32 °F 29.8 in West 6.3 mph 9.4 mph 61% 0 in
16:56 45.1 °F 32 °F 29.8 in West 4.3 mph 10.5 mph 61% 0 in
17:01 45.1 °F 32 °F 29.8 in West 7.6 mph 10.5 mph 61% 0 in
17:06 45.1 °F 32 °F 29.8 in West 4.9 mph 9.6 mph 61% 0 in
17:11 45.1 °F 32 °F 29.8 in West 1.1 mph 8.1 mph 61% 0 in
17:16 45.1 °F 32 °F 29.8 in West 6.3 mph 7.2 mph 61% 0 in
17:21 45.1 °F 32 °F 29.8 in WSW 5.8 mph 10.1 mph 61% 0 in
17:26 45.1 °F 32 °F 29.8 in West 4.9 mph 10.1 mph 61% 0 in
17:31 40.3 °F 32 °F 29.8 in WSW 5.8 mph 6.5 mph 72% 0 in
17:36 39.9 °F 32 °F 29.8 in West 7.2 mph 7.8 mph 73% 0 in
17:41 39.9 °F 32 °F 29.8 in WSW 6 mph 7.8 mph 74% 0 in
17:46 39.6 °F 32 °F 29.8 in WSW 3.4 mph 7.6 mph 74% 0 in
17:51 39.2 °F 32 °F 29.8 in WSW 6.5 mph 6.5 mph 75% 0 in
17:56 39 °F 32 °F 29.8 in SW 5.6 mph 6.5 mph 76% 0 in
18:01 38.8 °F 32 °F 29.8 in SSW 3.6 mph 6.5 mph 76% 0 in
18:06 38.7 °F 32 °F 29.8 in SW 3.1 mph 5.6 mph 77% 0 in
18:11 38.7 °F 32 °F 29.8 in SSW 5.4 mph 5.4 mph 77% 0 in
18:16 38.7 °F 32 °F 29.8 in WSW 4.9 mph 6 mph 77% 0 in
18:21 38.7 °F 32 °F 29.8 in WSW 3.6 mph 6 mph 77% 0 in
18:26 38.7 °F 32 °F 29.8 in Calm   6 mph 77% 0 in
18:31 38.7 °F 32 °F 29.8 in Calm   4 mph 77% 0 in
18:36 38.7 °F 32 °F 29.8 in Calm   3.4 mph 77% 0 in
18:41 38.7 °F 32 °F 29.8 in Calm     77% 0 in
18:46 38.7 °F 32 °F 29.8 in Calm     77% 0 in
18:51 38.7 °F 32 °F 29.8 in Calm     77% 0 in
18:56 38.7 °F 32 °F 29.8 in Calm   3.8 mph 77% 0 in
19:01 38.7 °F 32 °F 29.8 in WSW 0.9 mph 4 mph 77% 0 in
19:06 38.7 °F 32 °F 29.8 in Calm   5.8 mph 77% 0 in
19:11 38.7 °F 32 °F 29.8 in Calm   5.8 mph 77% 0 in
19:16 38.7 °F 32 °F 29.8 in Calm   5.6 mph 77% 0 in
19:21 38.7 °F 32 °F 29.8 in Calm   5.6 mph 77% 0 in
19:26 38.7 °F 32 °F 29.8 in Calm     77% 0 in
19:31 38.7 °F 32 °F 29.8 in Calm     77% 0 in
19:36 38.7 °F 32 °F 29.8 in Calm   4.5 mph 77% 0 in
19:42 35.6 °F 32 °F 29.8 in Calm   4.5 mph 84% 0 in
19:47 35.6 °F 32 °F 29.8 in Calm     84% 0 in
19:52 36 °F 32 °F 29.8 in Calm     86% 0 in
19:57 36 °F 32 °F 29.8 in SSW 4 mph 4 mph 86% 0 in
20:02 36.3 °F 33.8 °F 29.8 in Calm   4 mph 87% 0 in
20:07 36.3 °F 33.8 °F 29.8 in Calm   3.8 mph 86% 0 in
20:12 36.1 °F 33.8 °F 29.8 in SSW 2.2 mph 2.5 mph 86% 0 in
20:17 36 °F 32 °F 29.8 in Calm   2.5 mph 86% 0 in
20:22 35.8 °F 32 °F 29.8 in Calm   2.2 mph 86% 0 in
20:27 35.8 °F 32 °F 29.8 in South 2.7 mph 2.7 mph 86% 0 in
20:32 35.8 °F 32 °F 29.8 in Calm   3.4 mph 86% 0 in
20:37 35.8 °F 33.8 °F 29.8 in Calm   3.4 mph 87% 0 in
20:42 35.6 °F 33.8 °F 29.8 in SSW 0.9 mph 3.6 mph 87% 0 in
20:47 35.6 °F 33.8 °F 29.8 in SSW 3.6 mph 3.6 mph 87% 0 in
20:52 35.8 °F 33.8 °F 29.8 in Calm   4.3 mph 87% 0 in
20:57 36.1 °F 33.8 °F 29.8 in Calm   4.3 mph 88% 0 in
21:02 36.3 °F 33.8 °F 29.8 in SSW 4.9 mph 6.3 mph 88% 0 in
21:07 36.7 °F 33.8 °F 29.8 in Calm   7.6 mph 89% 0 in
21:12 36.7 °F 33.8 °F 29.8 in Calm   7.6 mph 89% 0 in
21:17 36.7 °F 33.8 °F 29.8 in Calm   5.6 mph 89% 0 in
21:22 36.3 °F 33.8 °F 29.8 in WSW 4.7 mph 4.9 mph 88% 0 in
21:27 36.1 °F 33.8 °F 29.8 in WSW 6 mph 6 mph 88% 0 in
21:32 36.3 °F 33.8 °F 29.8 in Calm   6 mph 89% 0 in
21:37 36.5 °F 33.8 °F 29.8 in Calm   6 mph 89% 0 in
21:42 36.5 °F 33.8 °F 29.8 in Calm   4.3 mph 89% 0 in
21:47 36.5 °F 33.8 °F 29.8 in Calm   4 mph 89% 0 in
21:52 36.3 °F 33.8 °F 29.8 in Calm   4.5 mph 89% 0 in
21:57 36.1 °F 33.8 °F 29.8 in Calm   4.5 mph 88% 0 in
22:02 36.1 °F 33.8 °F 29.8 in Calm   4.3 mph 89% 0 in
22:07 35.8 °F 33.8 °F 29.8 in SSW 3.8 mph 4.3 mph 88% 0 in
22:13 36 °F 33.8 °F 29.8 in SSW 3.4 mph 4.9 mph 89% 0 in
22:18 36 °F 33.8 °F 29.8 in Calm   4.9 mph 89% 0 in
22:23 36 °F 33.8 °F 29.8 in West 2.7 mph 4.3 mph 90% 0 in
22:28 35.8 °F 33.8 °F 29.8 in Calm   2.7 mph 90% 0 in
22:33 35.6 °F 33.8 °F 29.8 in Calm   2.2 mph 89% 0 in
22:38 35.4 °F 33.8 °F 29.8 in Calm     89% 0 in
22:43 35.1 °F 32 °F 29.8 in Calm     89% 0 in
22:48 34.7 °F 32 °F 29.8 in Calm     89% 0 in
22:53 34.3 °F 32 °F 29.8 in Calm     88% 0 in
22:58 34 °F 30.2 °F 29.8 in Calm     88% 0 in
23:03 33.8 °F 30.2 °F 29.8 in Calm     88% 0 in
23:08 33.4 °F 32 °F 29.8 in Calm     89% 0 in
23:13 33.3 °F 30.2 °F 29.8 in Calm     89% 0 in
23:18 33.1 °F 30.2 °F 29.8 in Calm     89% 0 in
23:23 32.9 °F 30.2 °F 29.8 in Calm     90% 0 in
23:28 32.7 °F 30.2 °F 29.8 in Calm     90% 0 in
23:33 32.5 °F 30.2 °F 29.8 in Calm     90% 0 in
23:38 32.7 °F 30.2 °F 29.8 in Calm     91% 0 in
23:43 32.9 °F 32 °F 29.8 in Calm     91% 0 in
23:48 33.1 °F 32 °F 29.8 in Calm     92% 0 in
23:53 33.3 °F 32 °F 29.8 in Calm     92% 0 in
23:58 33.3 °F 32 °F 29.8 in Calm     93% 0 in
Données Historique de Météo Turbie

Mise a jour : 22/05/2018 19:56:12
Généré par Cumulus 1.9.4 (1099)